DW2819 Weather Reports


Display with metric or nautical units.
time (UTC)temp
F
wind
direction
speed
MPH
gust
MPH
rain 1hr
in
rain 24hr
in
rain mn
in
humidity
%
barometer
mb
20260502180253 58 59 0.0 5.0 0.00 0.00 0.00 54 1008.5
20260502164249 63 149 2.0 6.0 0.00 0.00 0.00 40 1008.4
20260502163752 64 0 1.0 6.0 0.00 0.00 0.00 39 1008.4
20260502163249 64 186 1.0 3.0 0.00 0.00 0.00 39 1008.3
20260502162749 64 45 1.0 4.0 0.00 0.00 0.00 39 1008.4
20260502162249 64 20 2.0 4.0 0.00 0.00 0.00 38 1008.3
20260502161749 64 290 2.0 4.0 0.00 0.00 0.00 37 1008.4
20260502161254 65 214 2.0 5.0 0.00 0.00 0.00 36 1008.4
20260502160730 65 344 2.0 5.0 0.00 0.00 0.00 36 1008.4
20260502152229 66 243 2.0 9.0 0.00 0.00 0.00 33 1008.8
20260502151729 66 117 2.0 5.0 0.00 0.00 0.00 33 1008.8
20260502151230 66 262 2.0 6.0 0.00 0.00 0.00 33 1008.8
20260502150729 66 0 3.0 6.0 0.00 0.00 0.00 32 1008.8
20260502150233 66 275 2.0 7.0 0.00 0.00 0.00 33 1008.8
20260502130656 70 248 2.0 10.0 0.00 0.00 0.00 32 1008.8
20260502123649 71 334 2.0 7.0 0.00 0.00 0.00 32 1008.9
20260502122649 71 250 3.0 9.0 0.00 0.00 0.00 30 1008.9
20260502122148 71 321 3.0 7.0 0.00 0.00 0.00 30 1009.0
20260502121652 71 355 2.0 7.0 0.00 0.00 0.00 31 1008.9
20260502121149 71 285 2.0 6.0 0.00 0.00 0.00 31 1008.9
20260502120648 71 357 2.0 11.0 0.00 0.00 0.00 31 1009.1
20260502115648 71 17 4.0 9.0 0.00 0.00 0.00 31 1009.1
20260502115152 72 1 2.0 6.0 0.00 0.00 0.00 30 1009.1
20260502114652 72 183 2.0 7.0 0.00 0.00 0.00 31 1009.1
20260502114150 72 283 3.0 7.0 0.00 0.00 0.00 32 1009.1
20260502113136 72 264 1.0 9.0 0.00 0.00 0.00 33 1009.1
20260502112629 71 251 2.0 6.0 0.00 0.00 0.00 41 1009.2
20260502112130 70 124 3.0 6.0 0.00 0.00 0.00 42 1009.2
20260502111633 70 282 1.0 6.0 0.00 0.00 0.00 42 1009.3
20260502111105 71 165 3.0 6.0 0.00 0.00 0.00 40 1009.4
20260502110608 71 292 2.0 4.0 0.00 0.00 0.00 41 1009.3
20260502110106 72 345 2.0 9.0 0.00 0.00 0.00 41 1009.4
20260502105606 72 123 2.0 10.0 0.00 0.00 0.00 41 1009.4
20260502105057 72 210 3.0 10.0 0.00 0.00 0.00 41 1009.4
20260502103554 71 87 1.0 5.0 0.00 0.00 0.00 41 1009.4
20260502103048 71 333 3.0 6.0 0.00 0.00 0.00 41 1009.5
20260502102549 71 265 1.0 6.0 0.00 0.00 0.00 41 1009.5
20260502102049 71 188 2.0 6.0 0.00 0.00 0.00 39 1009.6
20260502101549 72 182 2.0 6.0 0.00 0.00 0.00 40 1009.6
20260502101048 72 266 2.0 5.0 0.00 0.00 0.00 40 1009.5
20260502100548 72 312 3.0 5.0 0.00 0.00 0.00 40 1009.6
20260502071448 63 298 2.0 4.0 0.00 0.00 0.00 47 1010.8
20260502070948 62 118 1.0 4.0 0.00 0.00 0.00 49 1010.8
20260502070448 62 8 2.0 3.0 0.00 0.00 0.00 49 1010.8
20260502065948 61 338 2.0 3.0 0.00 0.00 0.00 50 1010.8
20260502065448 61 344 2.0 3.0 0.00 0.00 0.00 51 1010.8
20260502064948 61 251 1.0 3.0 0.00 0.00 0.00 51 1010.9
20260502064451 60 323 1.0 4.0 0.00 0.00 0.00 52 1010.9
20260502063448 59 351 2.0 4.0 0.00 0.00 0.00 53 1010.9
20260502062449 58 327 1.0 4.0 0.00 0.00 0.00 56 1011.0
20260502061948 57 289 1.0 4.0 0.00 0.00 0.00 57 1011.0
20260502061450 57 293 2.0 3.0 0.00 0.00 0.00 58 1011.1
20260502060947 56 338 1.0 3.0 0.00 0.00 0.00 60 1011.1
20260502060448 55 303 2.0 4.0 0.00 0.00 0.00 62 1011.0
20260502055948 55 317 2.0 4.0 0.00 0.00 0.00 64 1011.2
20260502055451 54 313 1.0 2.0 0.00 0.00 0.00 66 1011.1
20260502054949 53 209 1.0 2.0 0.00 0.00 0.00 70 1011.2
20260502053948 51 172 0.0 2.0 0.00 0.00 0.00 72 1011.3
20260502052947 49 292 0.0 2.0 0.00 0.00 0.00 78 1011.2
20260502052448 48 268 0.0 1.0 0.00 0.00 0.00 80 1011.2
20260502051948 47 204 0.0 1.0 0.00 0.00 0.00 81 1011.2
20260502051450 47 117 0.0 1.0 0.00 0.00 0.00 82 1011.2
20260502050947 46 83 0.0 1.0 0.00 0.00 0.00 84 1011.3
20260502045947 45 135 0.0 1.0 0.00 0.00 0.00 85 1011.4
20260502045448 44 90 0.0 1.0 0.00 0.00 0.00 87 1011.4
20260502044947 44 85 0.0 1.0 0.00 0.00 0.00 88 1011.4
20260502043948 42 63 0.0 0.0 0.00 0.00 0.00 88 1011.4
20260502043447 42 63 0.0 0.0 0.00 0.00 0.00 89 1011.4
20260502042951 41 63 0.0 0.0 0.00 0.00 0.00 90 1011.4
20260502042448 41 63 0.0 0.0 0.00 0.00 0.00 90 1011.6
20260502041949 40 63 0.0 0.0 0.00 0.00 0.00 90 1011.6
20260502041448 40 63 0.0 0.0 0.00 0.00 0.00 90 1011.6
20260502040950 39 63 0.0 0.0 0.00 0.00 0.00 90 1011.8
20260502040447 39 63 0.0 0.0 0.00 0.00 0.00 90 1011.7
20260502035948 38 63 0.0 0.0 0.00 0.00 0.00 90 1011.7
20260502035447 38 63 0.0 0.0 0.00 0.00 0.00 89 1011.7
20260502034947 38 63 0.0 0.0 0.00 0.00 0.00 89 1011.7
20260502033951 37 63 0.0 0.0 0.00 0.00 0.00 89 1011.7
20260502033448 37 63 0.0 0.0 0.00 0.00 0.00 88 1011.7
20260502032448 36 63 0.0 0.0 0.00 0.00 0.00 88 1011.9
20260502031451 36 63 0.0 0.0 0.00 0.00 0.00 88 1011.8
20260502030948 36 63 0.0 0.0 0.00 0.00 0.00 87 1011.8
20260502030451 36 63 0.0 0.0 0.00 0.00 0.00 87 1011.8
20260502025947 36 63 0.0 0.0 0.00 0.00 0.00 86 1011.7
20260502025448 36 63 0.0 0.0 0.00 0.00 0.00 86 1011.7
20260502024951 36 63 0.0 0.0 0.00 0.00 0.00 86 1011.8
20260502023951 36 63 0.0 0.0 0.00 0.00 0.00 86 1012.1
20260502023452 37 63 0.0 0.0 0.00 0.00 0.00 86 1012.1
20260502022948 37 63 0.0 0.0 0.00 0.00 0.00 86 1012.1
20260502022447 37 63 0.0 0.0 0.00 0.00 0.00 86 1012.2
20260502021948 37 63 0.0 0.0 0.00 0.00 0.00 86 1012.3
20260502021448 37 63 0.0 0.0 0.00 0.00 0.00 86 1012.4
20260502020953 37 63 0.0 0.0 0.00 0.00 0.00 85 1012.5
20260502020451 37 63 0.0 0.0 0.00 0.00 0.00 85 1012.4
20260502015951 38 63 0.0 0.0 0.00 0.00 0.00 85 1012.5
20260502014447 38 63 0.0 0.0 0.00 0.00 0.00 84 1012.5
20260502013947 38 63 0.0 0.0 0.00 0.00 0.00 85 1012.6
20260502013450 38 63 0.0 0.0 0.00 0.00 0.00 85 1012.7
20260502012947 38 63 0.0 0.0 0.00 0.00 0.00 84 1012.8
20260502012448 38 63 0.0 0.0 0.00 0.00 0.00 86 1012.9
20260502011946 38 63 0.0 0.0 0.00 0.00 0.00 85 1012.9
20260502011446 38 63 0.0 0.0 0.00 0.00 0.00 85 1012.9
20260502010946 38 63 0.0 0.0 0.00 0.00 0.00 85 1012.8
20260502010449 38 63 0.0 0.0 0.00 0.00 0.00 85 1012.8
20260502005950 38 63 0.0 2.0 0.00 0.00 0.00 85 1012.8
20260502004947 39 55 2.0 2.0 0.00 0.00 0.00 84 1013.0
20260502004447 39 310 0.0 0.0 0.00 0.00 0.00 84 1013.1
20260502003951 39 310 0.0 0.0 0.00 0.00 0.00 83 1013.2
20260502003450 39 309 0.0 0.0 0.00 0.00 0.00 83 1013.0
20260502002447 39 310 0.0 0.0 0.00 0.00 0.00 83 1013.3
20260502001948 40 310 0.0 0.0 0.00 0.00 0.00 82 1013.3
20260502001447 40 310 0.0 0.0 0.00 0.00 0.00 83 1013.4
20260502000948 40 310 0.0 0.0 0.00 0.00 0.00 82 1013.5
20260502000447 40 309 0.0 0.0 0.00 0.00 0.00 82 1013.5
20260501235947 40 310 0.0 0.0 0.00 0.00 0.00 82 1013.6
20260501235448 40 309 0.0 0.0 0.00 0.00 0.00 81 1013.6
20260501234933 41 310 0.0 0.0 0.00 0.00 0.00 80 1013.6
20260501234429 41 310 0.0 0.0 0.00 0.00 0.00 80 1013.6
20260501233933 41 309 0.0 0.0 0.00 0.00 0.00 80 1013.7
20260501233429 41 309 0.0 0.0 0.00 0.00 0.00 80 1013.7
20260501232929 42 310 0.0 0.0 0.00 0.00 0.00 80 1013.8
20260501232432 42 310 0.0 0.0 0.00 0.00 0.00 79 1013.9
20260501231917 42 310 0.0 0.0 0.00 0.00 0.00 79 1013.9
20260501231417 42 310 0.0 0.0 0.00 0.00 0.00 81 1013.9
20260501230404 43 310 0.0 0.0 0.00 0.00 0.00 80 1014.0
20260501225909 43 310 0.0 0.0 0.00 0.00 0.00 80 1013.9
20260501225405 43 310 0.0 0.0 0.00 0.00 0.00 80 1014.0
20260501224905 43 309 0.0 0.0 0.00 0.00 0.00 80 1014.0
20260501224403 43 310 0.0 0.0 0.00 0.00 0.00 80 1014.1
20260501223905 43 310 0.0 0.0 0.00 0.00 0.00 79 1014.1
20260501223405 44 310 0.0 0.0 0.00 0.00 0.00 79 1014.1
20260501222904 44 310 0.0 0.0 0.00 0.00 0.00 79 1014.0
20260501222403 44 310 0.0 0.0 0.00 0.00 0.00 78 1014.1
20260501221403 44 310 0.0 0.0 0.00 0.00 0.00 78 1014.1
20260501220901 44 310 0.0 0.0 0.00 0.00 0.00 77 1014.2
20260501220404 44 309 0.0 0.0 0.00 0.00 0.00 77 1014.3
20260501215902 44 310 0.0 0.0 0.00 0.00 0.00 76 1014.3
20260501215404 44 309 0.0 0.0 0.00 0.00 0.00 76 1014.3
20260501214902 45 310 0.0 0.0 0.00 0.00 0.00 75 1014.4
20260501214403 45 310 0.0 0.0 0.00 0.00 0.00 75 1014.5
20260501213901 45 309 0.0 0.0 0.00 0.00 0.00 75 1014.6
20260501213402 45 310 0.0 0.0 0.00 0.00 0.00 74 1014.6
20260501212905 45 310 0.0 0.0 0.00 0.00 0.00 73 1014.6
20260501212405 46 310 0.0 0.0 0.00 0.00 0.00 73 1014.7
20260501211901 46 309 0.0 0.0 0.00 0.00 0.00 73 1014.8
20260501210905 47 310 0.0 0.0 0.00 0.00 0.00 72 1014.9
20260501210351 47 310 0.0 0.0 0.00 0.00 0.00 71 1014.9
20260501205846 47 310 0.0 0.0 0.00 0.00 0.00 70 1014.9
20260501205346 47 310 0.0 0.0 0.00 0.00 0.00 70 1014.9
20260501204847 47 310 0.0 0.0 0.00 0.00 0.00 69 1014.9
20260501204346 48 310 0.0 0.0 0.00 0.00 0.00 68 1014.9
20260501203847 48 309 0.0 0.0 0.00 0.00 0.00 68 1015.0
20260501203347 48 310 0.0 0.0 0.00 0.00 0.00 67 1015.0
20260501202349 48 310 0.0 0.0 0.00 0.00 0.00 65 1015.0
20260501201847 49 310 0.0 0.0 0.00 0.00 0.00 65 1015.1
20260501201347 49 310 0.0 0.0 0.00 0.00 0.00 64 1015.2
20260501200847 49 309 0.0 0.0 0.00 0.00 0.00 62 1015.1
20260501200349 49 309 0.0 0.0 0.00 0.00 0.00 62 1015.2
20260501195846 50 310 0.0 0.0 0.00 0.00 0.00 61 1015.2
20260501195351 50 310 0.0 0.0 0.00 0.00 0.00 60 1015.2
20260501194848 50 310 0.0 0.0 0.00 0.00 0.00 60 1015.2
20260501194348 51 310 0.0 0.0 0.00 0.00 0.00 59 1015.3
20260501193350 51 310 0.0 0.0 0.00 0.00 0.00 57 1015.4
20260501192847 52 310 0.0 0.0 0.00 0.00 0.00 57 1015.5
20260501192347 52 310 0.0 0.0 0.00 0.00 0.00 57 1015.5
20260501191848 53 310 0.0 0.0 0.00 0.00 0.00 55 1015.4
20260501191347 53 310 0.0 0.0 0.00 0.00 0.00 57 1015.4
20260501190351 53 310 0.0 0.0 0.00 0.00 0.00 55 1015.3
20260501185849 54 310 0.0 0.0 0.00 0.00 0.00 54 1015.4
20260501185348 54 310 0.0 0.0 0.00 0.00 0.00 53 1015.5
20260501184847 55 310 0.0 0.0 0.00 0.00 0.00 53 1015.5
20260501184350 55 310 0.0 0.0 0.00 0.00 0.00 51 1015.6
20260501183847 55 309 0.0 0.0 0.00 0.00 0.00 51 1015.6
20260501183346 55 310 0.0 0.0 0.00 0.00 0.00 51 1015.7
20260501182847 56 310 0.0 0.0 0.00 0.00 0.00 50 1015.8
20260501182350 56 310 0.0 0.0 0.00 0.00 0.00 51 1015.8
20260501181846 56 310 0.0 0.0 0.00 0.00 0.00 51 1015.8
20260501181346 57 307 0.0 1.0 0.00 0.00 0.00 51 1015.8
20260501180846 57 307 0.0 2.0 0.00 0.00 0.00 49 1015.8